Location: Chuathbaluk
(61.5726°N, 159.2454°W)
Time: 13:27:37
(UTC+00:00)

XW-2F - Pass Details

Date: 24 January 2021
Orbit: 500 x 520 km, 97.5° (Epoch: 01 March)

Event Time Altitude Azimuth Distance (km) Brightness Sun altitude
Rises 05:13:59 0° 219° (SW) 2,623 ? -19.7°
Reaches altitude 10° 05:17:05 10° 248° (WSW) 1,748 ? -20.1°
Maximum altitude 05:18:53 13° 277° (W) 1,571 ? -20.3°
Drops below altitude 10° 05:20:42 10° 305° (NW) 1,760 ? -20.5°
Sets 05:23:52 0° 334° (NNW) 2,659 ? -20.9°
